Location: Hamayl? Da??
(36.7028°N, 30.1716°E)
Time: 01:49:47
(UTC+00:00)

Meteor 2-19 Rocket - Pass Details

Date: 04 August 2024
Orbit: 935 x 959 km, 82.5° (Epoch: 12 September)

Event Time Altitude Azimuth Distance (km) Brightness Sun altitude
Rises 19:02:20 0° 355° (N) 3,622 8.2 -21.2°
Reaches altitude 10° 19:04:51 10° 358° (N) 2,670 7.4 -21.5°
Maximum altitude 19:10:56 69° 82° (E) 1,004 4.4 -22.4°
Enters shadow 19:12:43 46° 147° (SSE) 1,238 4.6 -22.7°
